| time (UTC) | temp F | wind direction | speed MPH | gust MPH | rain 1hr in | rain 24hr in | rain mn in | humidity % | barometer mb |
| 20260502164020 | 87 | 67 | 0.0 | 0.0 | 0.00 | 0.00 | 0.00 | 20 | 1016.0 |
| 20260502162520 | 89 | 0 | 3.0 | 0.0 | 0.00 | 0.00 | 0.00 | 20 | 1016.2 |
| 20260502161020 | 90 | 0 | 0.0 | 0.0 | 0.00 | 0.00 | 0.00 | 19 | 1016.2 |
| 20260502151020 | 93 | 292 | 0.0 | 0.0 | 0.00 | 0.00 | 0.00 | 18 | 1016.9 |
| 20260502122520 | 86 | 90 | 0.0 | 0.0 | 0.00 | 0.00 | 0.00 | 23 | 1018.7 |
| 20260502121020 | 88 | 315 | 3.0 | 0.0 | 0.00 | 0.00 | 0.00 | 24 | 1018.9 |
| 20260502115520 | 87 | 225 | 0.0 | 0.0 | 0.00 | 0.00 | 0.00 | 24 | 1019.0 |
| 20260502114020 | 87 | 225 | 2.0 | 0.0 | 0.00 | 0.00 | 0.00 | 24 | 1019.2 |
| 20260502112520 | 89 | 112 | 2.0 | 0.0 | 0.00 | 0.00 | 0.00 | 22 | 1019.5 |
| 20260502111020 | 88 | 112 | 0.0 | 0.0 | 0.00 | 0.00 | 0.00 | 22 | 1019.7 |
| 20260502105520 | 89 | 292 | 0.0 | 0.0 | 0.00 | 0.00 | 0.00 | 24 | 1019.5 |
| 20260502104020 | 86 | 247 | 0.0 | 0.0 | 0.00 | 0.00 | 0.00 | 25 | 1019.7 |
| 20260502102520 | 83 | 0 | 2.0 | 0.0 | 0.00 | 0.00 | 0.00 | 26 | 1020.0 |
| 20260502101020 | 85 | 0 | 0.0 | 0.0 | 0.00 | 0.00 | 0.00 | 26 | 1020.2 |
| 20260502091020 | 82 | 270 | 2.0 | 0.0 | 0.00 | 0.00 | 0.00 | 27 | 1020.5 |
| 20260502071020 | 56 | 270 | 3.0 | 0.0 | 0.00 | 0.00 | 0.00 | 45 | 1020.7 |
| 20260502065520 | 53 | 202 | 2.0 | 0.0 | 0.00 | 0.00 | 0.00 | 45 | 1020.9 |
| 20260502064020 | 51 | 225 | 2.0 | 0.0 | 0.00 | 0.00 | 0.00 | 46 | 1020.9 |
| 20260502062520 | 49 | 292 | 0.0 | 0.0 | 0.00 | 0.00 | 0.00 | 47 | 1021.0 |
| 20260502061020 | 47 | 270 | 0.0 | 0.0 | 0.00 | 0.00 | 0.00 | 46 | 1021.0 |
| 20260502055520 | 45 | 270 | 2.0 | 0.0 | 0.00 | 0.00 | 0.00 | 47 | 1021.0 |
| 20260502054020 | 43 | 270 | 2.0 | 0.0 | 0.00 | 0.00 | 0.00 | 47 | 1021.0 |
| 20260502052520 | 42 | 292 | 0.0 | 0.0 | 0.00 | 0.00 | 0.00 | 47 | 1021.0 |
| 20260502051020 | 40 | 292 | 0.0 | 0.0 | 0.00 | 0.00 | 0.00 | 47 | 1020.9 |
| 20260502045520 | 39 | 292 | 0.0 | 0.0 | 0.00 | 0.00 | 0.00 | 48 | 1020.9 |
| 20260502044020 | 38 | 292 | 0.0 | 0.0 | 0.00 | 0.00 | 0.00 | 49 | 1020.9 |
| 20260502042520 | 38 | 292 | 0.0 | 0.0 | 0.00 | 0.00 | 0.00 | 50 | 1020.7 |
| 20260502041020 | 37 | 292 | 0.0 | 0.0 | 0.00 | 0.00 | 0.00 | 50 | 1020.7 |
| 20260502035520 | 37 | 292 | 0.0 | 0.0 | 0.00 | 0.00 | 0.00 | 51 | 1020.7 |
| 20260502034020 | 37 | 292 | 0.0 | 0.0 | 0.00 | 0.00 | 0.00 | 52 | 1020.7 |
| 20260502032520 | 37 | 292 | 0.0 | 0.0 | 0.00 | 0.00 | 0.00 | 52 | 1020.5 |
| 20260502031020 | 38 | 292 | 0.0 | 0.0 | 0.00 | 0.00 | 0.00 | 52 | 1020.7 |
| 20260502025520 | 38 | 292 | 0.0 | 0.0 | 0.00 | 0.00 | 0.00 | 53 | 1020.7 |
| 20260502024020 | 38 | 292 | 0.0 | 0.0 | 0.00 | 0.00 | 0.00 | 53 | 1021.0 |
| 20260502022520 | 38 | 292 | 0.0 | 0.0 | 0.00 | 0.00 | 0.00 | 54 | 1020.9 |
| 20260502021020 | 38 | 292 | 0.0 | 0.0 | 0.00 | 0.00 | 0.00 | 54 | 1021.0 |
| 20260502015520 | 38 | 292 | 0.0 | 0.0 | 0.00 | 0.00 | 0.00 | 54 | 1020.9 |
| 20260502014020 | 39 | 292 | 0.0 | 0.0 | 0.00 | 0.00 | 0.00 | 55 | 1020.9 |
| 20260502012520 | 39 | 292 | 0.0 | 0.0 | 0.00 | 0.00 | 0.00 | 55 | 1021.0 |
| 20260502011020 | 40 | 292 | 0.0 | 0.0 | 0.00 | 0.00 | 0.00 | 55 | 1021.0 |
| 20260502005520 | 40 | 270 | 0.0 | 0.0 | 0.00 | 0.00 | 0.00 | 55 | 1021.0 |
| 20260502004020 | 40 | 270 | 0.0 | 0.0 | 0.00 | 0.00 | 0.00 | 56 | 1021.2 |
| 20260502002520 | 40 | 270 | 0.0 | 0.0 | 0.00 | 0.00 | 0.00 | 56 | 1021.4 |
| 20260502001020 | 41 | 270 | 0.0 | 0.0 | 0.00 | 0.00 | 0.00 | 55 | 1021.5 |
| 20260501235520 | 42 | 270 | 0.0 | 0.0 | 0.00 | 0.00 | 0.00 | 55 | 1021.5 |
| 20260501234020 | 42 | 270 | 0.0 | 0.0 | 0.00 | 0.00 | 0.00 | 55 | 1021.5 |
| 20260501232520 | 43 | 135 | 0.0 | 0.0 | 0.00 | 0.00 | 0.00 | 54 | 1021.5 |
| 20260501231020 | 43 | 135 | 0.0 | 0.0 | 0.00 | 0.00 | 0.00 | 53 | 1021.7 |
| 20260501225520 | 44 | 135 | 0.0 | 0.0 | 0.00 | 0.00 | 0.00 | 53 | 1021.7 |
| 20260501224020 | 44 | 135 | 0.0 | 0.0 | 0.00 | 0.00 | 0.00 | 52 | 1021.7 |
| 20260501222520 | 45 | 135 | 0.0 | 0.0 | 0.00 | 0.00 | 0.00 | 52 | 1021.9 |
| 20260501221020 | 46 | 135 | 0.0 | 0.0 | 0.00 | 0.00 | 0.00 | 50 | 1022.0 |
| 20260501215520 | 46 | 135 | 1.0 | 0.0 | 0.00 | 0.00 | 0.00 | 50 | 1021.9 |
| 20260501214020 | 46 | 135 | 0.0 | 0.0 | 0.00 | 0.00 | 0.00 | 49 | 1021.9 |
| 20260501212520 | 47 | 135 | 0.0 | 0.0 | 0.00 | 0.00 | 0.00 | 48 | 1022.0 |
| 20260501211020 | 48 | 135 | 0.0 | 0.0 | 0.00 | 0.00 | 0.00 | 48 | 1022.0 |
| 20260501205520 | 49 | 135 | 0.0 | 0.0 | 0.00 | 0.00 | 0.00 | 46 | 1022.0 |
| 20260501204020 | 50 | 135 | 0.0 | 0.0 | 0.00 | 0.00 | 0.00 | 45 | 1022.0 |
| 20260501202520 | 51 | 135 | 0.0 | 0.0 | 0.00 | 0.00 | 0.00 | 44 | 1022.2 |
| 20260501201020 | 52 | 135 | 2.0 | 0.0 | 0.00 | 0.00 | 0.00 | 44 | 1022.0 |
| 20260501195520 | 53 | 135 | 0.0 | 0.0 | 0.00 | 0.00 | 0.00 | 42 | 1022.2 |
| 20260501194020 | 54 | 112 | 3.0 | 0.0 | 0.00 | 0.00 | 0.00 | 41 | 1022.0 |
| 20260501192520 | 55 | 112 | 0.0 | 0.0 | 0.00 | 0.00 | 0.00 | 40 | 1021.7 |
| 20260501191020 | 56 | 112 | 0.0 | 0.0 | 0.00 | 0.00 | 0.00 | 39 | 1021.7 |
| 20260501185520 | 57 | 135 | 6.0 | 0.0 | 0.00 | 0.00 | 0.00 | 38 | 1021.7 |
| 20260501184020 | 59 | 112 | 0.0 | 0.0 | 0.00 | 0.00 | 0.00 | 36 | 1021.5 |
| 20260501182520 | 60 | 112 | 3.0 | 0.0 | 0.00 | 0.00 | 0.00 | 34 | 1021.5 |
| 20260501181020 | 62 | 157 | 0.0 | 0.0 | 0.00 | 0.00 | 0.00 | 33 | 1021.5 |
| 20260501175519 | 64 | 157 | 2.0 | 0.0 | 0.00 | 0.00 | 0.00 | 29 | 1021.4 |
| 20260501174019 | 69 | 112 | 6.0 | 0.0 | 0.00 | 0.00 | 0.00 | 26 | 1021.4 |
| 20260501172519 | 78 | 225 | 2.0 | 0.0 | 0.00 | 0.00 | 0.00 | 22 | 1021.5 |